Time,TemperatureF,DewpointF,PressureIn,WindDirection,WindDirectionDegrees,WindSpeedMPH,WindSpeedGustMPH,Humidity,HourlyPrecipIn,Conditions,Clouds,dailyrainin,SoftwareType,DateUTC
2013-02-17 00:00:00,25.0,-99.9,-100.00,SE,131,2.0,-999.0,-999,-99.99,,,-99.99,,2013-02-17 08:00:00,
2013-02-17 01:00:00,24.0,-99.9,-100.00,SSW,196,2.0,-999.0,-999,-99.99,,,-99.99,,2013-02-17 09:00:00,
2013-02-17 02:00:00,22.0,-99.9,-100.00,SSE,165,3.0,-999.0,-999,-99.99,,,-99.99,,2013-02-17 10:00:00,
2013-02-17 03:00:00,22.0,-99.9,-100.00,WSW,246,3.0,-999.0,-999,-99.99,,,-99.99,,2013-02-17 11:00:00,
2013-02-17 04:00:00,23.0,-99.9,-100.00,WSW,250,3.0,-999.0,-999,-99.99,,,-99.99,,2013-02-17 12:00:00,
2013-02-17 05:00:00,21.0,-99.9,-100.00,West,269,2.0,-999.0,-999,-99.99,,,-99.99,,2013-02-17 13:00:00,
2013-02-17 06:00:00,19.0,-99.9,-100.00,SSW,206,2.0,-999.0,-999,-99.99,,,-99.99,,2013-02-17 14:00:00,
2013-02-17 07:00:00,20.0,-99.9,-100.00,WSW,252,3.0,-999.0,-999,-99.99,,,-99.99,,2013-02-17 15:00:00,
2013-02-17 08:00:00,22.0,-99.9,-100.00,WNW,293,2.0,-999.0,-999,-99.99,,,-99.99,,2013-02-17 16:00:00,
2013-02-17 09:00:00,28.0,-99.9,-100.00,WNW,297,1.0,-999.0,-999,-99.99,,,-99.99,,2013-02-17 17:00:00,
2013-02-17 10:00:00,33.0,-99.9,-100.00,SW,219,5.0,-999.0,-999,-99.99,,,-99.99,,2013-02-17 18:00:00,
2013-02-17 11:00:00,36.0,-99.9,-100.00,SW,223,3.0,-999.0,-999,-99.99,,,-99.99,,2013-02-17 19:00:00,
2013-02-17 12:00:00,38.0,-99.9,-100.00,SSW,213,5.0,-999.0,-999,-99.99,,,-99.99,,2013-02-17 20:00:00,
2013-02-17 13:00:00,40.0,-99.9,-100.00,SE,145,3.0,-999.0,-999,-99.99,,,-99.99,,2013-02-17 21:00:00,
2013-02-17 14:00:00,42.0,-99.9,-100.00,East,94,5.0,-999.0,-999,-99.99,,,-99.99,,2013-02-17 22:00:00,
2013-02-17 16:00:00,43.0,-99.9,-100.00,NE,35,5.0,-999.0,-999,-99.99,,,-99.99,,2013-02-18 00:00:00,
2013-02-17 18:00:00,37.0,-99.9,-100.00,NNE,24,2.0,-999.0,-999,-99.99,,,-99.99,,2013-02-18 02:00:00,
2013-02-17 20:00:00,31.0,-99.9,-100.00,NW,305,1.0,-999.0,-999,-99.99,,,-99.99,,2013-02-18 04:00:00,
2013-02-17 21:00:00,28.0,-99.9,-100.00,SW,217,1.0,-999.0,-999,-99.99,,,-99.99,,2013-02-18 05:00:00,
2013-02-17 22:00:00,27.0,-99.9,-100.00,South,183,2.0,-999.0,-999,-99.99,,,-99.99,,2013-02-18 06:00:00,
2013-02-17 23:00:00,26.0,-99.9,-100.00,SSW,192,1.0,-999.0,-999,-99.99,,,-99.99,,2013-02-18 07:00:00,